Re: [新聞] 區間測速致塞車? 警方駁:因為他們習慣

看板 Car
作者
時間
留言 99則留言,33人參與討論
推噓 24 ( 28推 4噓 67→ )
討論串 5
※ 引述《sstandc (義大利西裝紳士)》之銘言: : 警方真會順著主子講幹話 : 小學生都知道為何塞車 車多 = 塞車 除了車多之外,紅綠燈、未保持足夠的車距、亂切車道也是塞車的原因 https://www.youtube.com/watch?v=iHzzSao6ypE
: 無法控管買車的前提下 怎樣讓車減少? 就是讓車早點到目的地呀 : 讓車子在合理範圍內盡量開快 不就是唯一辦法嗎 : 前方沒車的 加快速度 , 後方有車的 跟上車流 不就這樣子而已嗎?? 以上只適用於車流量少的時候,真正車多的時候是能開多快? : 你警方還親自認證超速非車禍主因 : https://autos.udn.com/autos/story/12168/4557172 : 還是國道警察水準低於交通大隊? 不與採信 這也不代表就可以合理化超速行為,尤其是平面道路上。 更何況超速不是車禍主因但絕對是引發車禍的其中一個因素,這小學生也都會知道這點。 : 超速根本假議題 隊長一擋 除了你會飛 還不是都得乖乖給我塞車 超速絕對是真議題,世界上有哪個國家在平面道路上是沒有速限的? : 還有說啥噪音 聽你放屁 一堆測速設在沒有人居住的地方 土地公怕吵逆?? 怕一些智障過不了彎填海墜山谷啊! 等下刁民又跳出來哭哭說道路速限設計太高,要申請國賠。 而且沒人住的地方不代表沒有其它用路人,噪音管制是一回事, 超速下對其他用路人的危險又是另一回事了。 : 還有啥居民安全 高架車禍 關你平房屁事 還是馮迪索看太多 以為車都會飛到屋內?? 新聞內沒有提到高架不知道你在講什麼?不關平房的市總關其他用路人的事吧... 高車速下車禍絕對是更高機率造成人員死亡啊! : 官員屁話講這麼多 還不是因為測速照像 比起抓跟車流.抓低速 最方便 無腦輕鬆入國庫 一竿子打翻一條船... 新北交通大隊分隊長吳坤霖指出,有人覺得塞車,其實是因為這些人習慣開快車。 你只看到這個就氣pupu... 那你有沒有看到下面兩位教授的說法啊? 警察大學教授曾平毅指出,區間執法不會降低車流率造或壅塞,反而因為速差降低了, 可改善車流行進。另一名警大教授周文生也有相同看法 兩位教授的學歷皆為"國立交通大學交通運輸研究所博士",我相信兩位教授對區間測速的 看法是是絕對專業且正確的。 速限太低跟區間測速是兩個不同的議題,速限設定是道路規劃,區間測速是抓違規的方式 ,搞不懂為什麼總是要藉著不合理的速限規劃去反對區間測速... 難不成路上每20公尺就插上一支定點測速,這樣就不會反對了嗎? -- ※ 發信站: 批踢踢實業坊(ptt.cc), 來自: 114.27.21.195 (臺灣) ※ 文章網址: https://www.ptt.cc/bbs/car/M.1590749672.A.0CF.html
1FR101: 推,看到上一篇超傻眼,流量=速度*密度,沒什麼車當然不會 05/29 19:02
2FR101: 塞車愛開多快就多快… 05/29 19:02
3Fl11111111: 有些人叫他守法好像要他的命 氣成這樣 笑死 05/29 19:13
4FKKmex: 自強隧道實施前後旅運時間多很多,怎解? 05/29 19:13
5Fkylin123: 提早出發 05/29 19:25
6FTieylea: 自強隧道那個車流 就算恢復到沒有區間測速還是一樣塞給你 05/29 19:38
7FTieylea: 看 無解 至於那種離峰時間隧道當成國道跑的 拜託就不要 05/29 19:38
8FTieylea: 拿出來比較了 05/29 19:39
9FR101: 簡單來說,在會塞車的車流下不會因為你開快就不會塞。不會 05/29 19:44
10FR101: 塞的狀況下,也不會因為你遵守速限而塞車 05/29 19:44
11FAnkuo: 邏輯很好給推,不過超速合理前提在好的速限,我們速限在高 05/29 21:06
12FAnkuo: 級公務員管理下並不合理 05/29 21:06
13Fxheath: 速差降低改善車流行進? 05/29 21:16
對 速差降低會改善車流行進.
14Fxheath: 這就是全部一起nerf 啊 05/29 21:16
速差降低不代表時速降低
15Fxheath: 反正你超不了車 就沒有超車的問題啦 05/29 21:17
16Fxheath: 大家一樣快 就不會有塞車的感覺了 05/29 21:17
17Fxheath: 整條道路包括高速 快速道路這樣搞 05/29 21:18
18Fxheath: 就是大家一起慢 通通別超車 05/29 21:18
19Fxheath: 要做區間就要把內線超車考慮進去 05/29 21:19
20Fxheath: 現在這樣大家全部nerf 直接把超車道廢掉 05/29 21:19
21Fxheath: 超級低能 05/29 21:19
區間測速你還是可以超車啊... 你在講什麼東西?
22Fxheath: 兩位都是博士 然後呢?目前的區間測速就是毫無責任的措施 05/29 21:21
23Fxheath: 打錯 是 不負責任 05/29 21:25
兩個博士就是兩個專業,聽專業的總比聽不知道哪裡來的網友好,尊重專業很重要。 而且我相信網友更不會付出什麼責任的啦~
24FOrzOGC: 還好我都騎捷安特,不會塞車 05/29 21:29
※ 編輯: cmchiu (114.27.21.195 臺灣), 05/29/2020 21:53:43
25Fberryc: 對飆仔來說, 只要前面有車比他慢就是塞車 05/29 21:46
26Fxheath: 你才講什麼東西勒=_= 你是鍵盤開車嗎 05/29 22:12
27Fxheath: 區間測速當然可以超車 可是超過一秒就被罰錢 05/29 22:12
28Fnikesb: 喔 05/29 22:13
29Fxheath: 超車就補油門 就容易過速限 05/29 22:13
30Faftermathx: 超速被罰錢不是天經地義嗎 飆仔很愛扯一些有的沒的耶 05/29 22:14
31Fxheath: 你講的很容易 妳去有區間的路段看一堆人定在超慢速度 05/29 22:14
32Fxheath: 超速被罰錢 跟超車被罰錢 05/29 22:14
33Fxheath: 兩個不一樣吧 05/29 22:14
如果你超車會被罰錢,那就代表前車根本不是龜車是行駛在剛好的速限內, 根本就是你超速而被罰錢,這邏輯沒有很難。
34Fwuliou: 自強隧道30定起來 超車全部檢舉 ya 05/29 22:15
※ 編輯: cmchiu (114.27.21.195 臺灣), 05/29/2020 22:24:36
35FG773: 每次都會看到有人說要去龜,可是現實生活真的去龜的有幾隻? 05/29 22:19
36FG773: 萬里隧道平、假日去,車流也都很穩定 05/29 22:20
37Fnetburst: 交通部不可信 05/29 22:29
38Fnetburst: 看到交通幫的噓就對了 禍國殃民 05/29 22:30
39Fxheath: 你是不是覺得前車85公里你開90就可以輕易超車啊? 05/29 22:37
40Fxheath: 還在那邊前車不是龜車 你真的是鍵盤開車欸 05/29 22:38
41Fxheath: 我本來還以為你真的會什麼 05/29 22:38
42Fxheath: 結果上鍵盤開車 05/29 22:38
我是不會什麼啦~ 尤其是我不會憨到一超車就吃紅單啦~ ※ 編輯: cmchiu (114.27.21.195 臺灣), 05/29/2020 22:46:08
43Fxheath: 速限80 前車開70 我要超車可能踩到80-85但是可能會到81或8 05/29 22:42
44Fxheath: 2km 05/29 22:42
45Fxheath: 因為這瞬間的一點點差異 過了1秒 05/29 22:43
46Fxheath: 就被罰錢 05/29 22:43
47Fxheath: 區間就是有可能會這樣 05/29 22:43
48FFormulAn21: 試問自強隧道撞死人都只判1.2年了 05/29 22:44
49Fxheath: ok你硬要凹這就是超速 這就是飆仔? 05/29 22:44
50Fxheath: 那我沒意見 05/29 22:44
51Fjimmyyang: 推 本版還是有正道人士 沒速線飆仔早就不在網上駡 而 05/29 22:44
52FFormulAn21: 那區間測速是為了什麼? 05/29 22:44
53Fjimmyyang: 是在天上哭了 05/29 22:44
54FEVA96: 真的 應該設定所有車種 速度超過130km/hr就會爆炸 05/29 23:01
55FEVA96: 飆仔炸死自己就好 不要害人 05/29 23:01
56Fwphlatte: 為什麼前車70km/hr,我開到80還無法超車,任何時刻都不 05/29 23:18
57Fwphlatte: 能超速不就是法規,超不過某樓自己要超速去超怪誰 05/29 23:18
58Fxheath: 你是打電動嗎 前車永遠70?不會浮動喔? 05/29 23:20
59Fxheath: 就算他70定者不動 你開80要過也要超很久好嗎 05/29 23:21
60Fxheath: 你自己有開車 怎麼會不知道 05/29 23:21
61Fxheath: 然後超很久 在那邊並排?是有比較好? 05/29 23:23
62Fxheath: 當然 法規明擺著 任何時候不能超速 05/29 23:23
63Fxheath: 超速就要受罰 05/29 23:24
64Fxheath: 啊你們要是認為這種安全非惡意的超車 05/29 23:24
65Fxheath: 要被區間抓出來罰錢 是合情合理又很棒 05/29 23:25
66Fxheath: 我沒意見 05/29 23:25
67Fwphlatte: 跟了對方一段70km/hr的速度你跟我說你為了超過他開到85k 05/29 23:28
68Fwphlatte: m/hr會超速?你是一路超速吧,而且你這超車情境是雙黃線 05/29 23:28
69Fwphlatte: 逆向超車吧 05/29 23:28
70Fxheath: 快速也有區間阿 05/29 23:29
71Fxheath: 台61不就一堆區間了 05/29 23:29
72Fpowercold: 你這篇會惹惱飆仔,上一篇真的是荒謬 05/30 00:03
73Fa72737363: 原來車版還有清醒的人 05/30 00:15
74FDSB520: 讚讚 高速公路全線區間90保證順順順 05/30 01:01
75Fst101z: 區間測速應該要同時抓龜車這才正解,太多用路人明明該路段 05/30 01:34
76Fst101z: 限速50只開40?30甚至20的。只因為怕被照相?都遠低於速限 05/30 01:34
77Fst101z: 了。這才是很多人討厭的地方。如能大力宣導與取締時速過低 05/30 01:34
78Fst101z: 的龜車應能大大增加其行車效率 05/30 01:34
79Fmomofishj: 05/30 01:57
80Fmomofishj: 05/30 01:57
81FInar: 速限的合理性是否有重新檢視?速限40區間+20是在哈囉? 05/30 02:25
82FAirCondition: 板上講過N遍那個剎車導致塞車的影片了,但一堆智障 05/30 07:38
83FAirCondition: 就是選擇故意看不懂 05/30 07:38
84FIanLi: 裝睡的叫不醒,就不要賠了大家行的安全 05/30 09:05
85FFFMay: 警大教授的話聽聽就好,他們有做多少研究? 05/30 09:52
86Finconspicous: 比酸民自我感覺準確多了 05/30 11:14
87Ffirfox: 有的時候要超車不是限速70要用85去超車 05/30 12:07
88Ffirfox: 是限速40的時候你要用40去超過一台開30的車 05/30 12:07
89Ffirfox: 一台大卡車在山路上載很重開20 行經山路難得出現的雙線道 05/30 12:09
90Ffirfox: 很好心的靠外側車道讓後側車先行 但是要超過他的人只有 05/30 12:09
91Ffirfox: 40能用 05/30 12:10
92Ffirfox: 以南迴來說 這一段路通常只有幾台車能過 05/30 12:11
93Fkilof: 鄉民:教授掉書袋不食人間煙火活在象牙塔沒有社會經驗 05/30 16:48
94Fitaliano: 台61的區間根本笑話,前面超空,但所有車都等速擠在一起 05/30 17:03
95Fitaliano: ,阿算了等等又被嘴飆仔 05/30 17:03
96Fgg1259789: 我遇到區間測速一律開30 深怕超速吃罰單 05/30 21:07
97FG773: 樓上就拍開30的影片來看啊,不要只是出一張嘴 05/30 21:49
98Fpark00849: 重點就是區間測速插下去一堆人怕受罰,會用遠低於速限 05/31 05:34
99Fpark00849: 的速度行駛啊 05/31 05:34

完整討論串

留言數 標題 作者 日期
196 [新聞] 區間測速致塞車? 警方駁:因為他們習慣 Aqqqa 2020/05/29 11:43:43
9 Re: [新聞] 區間測速致塞車? 警方駁:因為他們習慣 xheath 2020/05/29 12:57:17
40 Re: [新聞] 區間測速致塞車? 警方駁:因為他們習慣 sstandc 2020/05/29 15:56:43
99 >> Re: [新聞] 區間測速致塞車? 警方駁:因為他們習慣 cmchiu 2020/05/29 18:54:29
41 Re: [新聞] 區間測速致塞車? 警方駁:因為他們習慣 TaiwanNeko 2020/05/29 21:44:54

car 看板熱門文章

13
30
18
46
37
89
21
32
87
155
2020/07/04 12:09:12
24
67
2020/07/04 13:23:28
9
41
11
30
2020/07/04 15:37:08
26
44
2020/07/04 16:19:04
52
74
46
69